Location: Peterborough
(44.3048°N, 78.3199°W)
Time: 03:22:21
(UTC-04:00)

ISS - Pass Details

Date: 14 May 2025
Orbit: 415 x 418 km, 51.6° (Epoch: 20 June)

Event Time Altitude Azimuth Distance (km) Brightness Sun altitude
Rises 23:55:07 0° 296° (WNW) 2,359 0.7 -24.8°
Reaches altitude 10° 23:57:30 10° 311° (NW) 1,494 -0.2 -24.9°
Maximum altitude 00:00:16 24° 7° (N) 922 -1.4 -25.0°
Enters shadow 00:01:07 21° 31° (NNE) 988 -1.5 -25.1°
